[Iaude] MPEC R114: 2016 RU19 [a=1.61,e=0.67,i=5.1,H=23.4]

mpec at mpc.eps.harvard.edu mpec at mpc.eps.harvard.edu
Sat Sep 10 21:51:16 EDT 2016


M.P.E.C. 2016-R114                               Issued 2016 Sept. 11, 01:47 UT
 
     The Minor Planet Electronic Circulars contain information on unusual
         minor planets and routine data on comets.  They are published
    on behalf of Division F of the International Astronomical Union by the
          Minor Planet Center, Smithsonian Astrophysical Observatory,
                          Cambridge, MA 02138, U.S.A.

             Prepared using the Tamkin Foundation Computer Network

                              MPC at CFA.HARVARD.EDU
            URL http://www.minorplanetcenter.net/    ISSN 1523-6714


                                   2016 RU19
 
Observations:
     K16R19U* C2016 09 06.45414 00 45 15.078-25 31 57.09         21.8 wLER114F51
     K16R19U  C2016 09 06.46508 00 45 09.300-25 31 52.95         21.7 wLER114F51
     K16R19U  C2016 09 06.50936 00 44 45.883-25 31 34.76         21.6 wLER114F51
     K16R19U _C2016 09 07.41441100 37 25.544-25 24 23.22         20.9 RtER114568
     K16R19U _C2016 09 07.41545000 37 25.046-25 24 22.76         21.0 RtER114568
     K16R19U |C2016 09 09.19182 00 24 33.44 -25 06 53.0          21.7 VuER114807
     K16R19U |C2016 09 09.19959 00 24 30.16 -25 06 48.5          21.5 VuER114807
     K16R19U |C2016 09 09.20713 00 24 27.05 -25 06 44.0          21.5 VuER114807
     K16R19U |C2016 09 10.27998 00 17 35.00 -24 55 08.5          21.7 VuER114807
     K16R19U |C2016 09 10.28632 00 17 32.59 -24 55 04.3          21.8 VuER114807
     K16R19U |C2016 09 10.29268 00 17 30.18 -24 54 59.8          21.8 VuER114807
     K16R19U KC2016 09 10.42049 00 16 43.46 -24 54 07.6          23.2 RoER114291
     K16R19U KC2016 09 10.42409 00 16 42.13 -24 54 04.8          23.5 RoER114291
     K16R19U KC2016 09 10.42767 00 16 40.81 -24 54 01.9          23.4 RoER114291
 
Observer details:
291 LPL/Spacewatch II.  Observer J. V. Scotti.  1.8-m f/2.7 reflector + CCD.
568 Mauna Kea.  Observers R. J. Wainscoat, P. Forshay.  Measurers M. Micheli,
    R. J. Wainscoat.  3.6-m Canada-France-Hawaii Telescope + CCD.
807 Cerro Tololo.  Observers T. Linder, R. Holmes.  0.61-m f/6.5 astrograph
    + CCD.
F51 Pan-STARRS 1, Haleakala.  Observers B. Gibson, T. Goggia, N. Primak,
    A. Schultz, M. Willman.  Measurers K. Chambers, S. Chastel, L. Denneau,
    H. Flewelling, M. Huber, E. Lilly, E. Magnier, R. Wainscoat, C. Waters,
    R. Weryk.  1.8-m Ritchey-Chretien + CCD.
 
Orbital elements:
2016 RU19                                                Earth MOID = 0.0447 AU
Epoch 2016 July 31.0 TT = JDT 2457600.5                 MPC
M  13.16256              (2000.0)            P               Q
n   0.48043162     Peri.  129.87253     -0.58097314     +0.80937485
a   1.6145382      Node   104.40189     -0.77122398     -0.51367640
e   0.6735625      Incl.    5.08937     -0.26016108     -0.28469092
P   2.05           H   23.4           G   0.15           U   8
Residuals in seconds of arc
160906 F51  0.1-  0.2+    160909 807  0.3+  0.1+    160910 807  0.6+  0.2-
160906 F51  0.1+  0.0     160909 807  0.3-  0.0     160910 291  0.6-  0.2-
160906 F51  0.2-  0.2-    160909 807  0.1+  0.0     160910 291  0.4-  0.0
160907 568  0.3-  0.1-    160910 807  0.6+  0.1-    160910 291  0.1-  0.4+
160907 568  0.2-  0.1-    160910 807  0.6+  0.3-

Ephemeris:
2016 RU19                a,e,i = 1.61, 0.67, 5                   q = 0.5270
Date    TT    R. A. (2000) Decl.     Delta      r     Elong.  Phase     V
2016 08 12    07 35 39.7 +03 36 07   0.1616  0.8768    29.8   144.9    26.7
...
2016 08 27    03 10 15.6 -22 29 26   0.1227  1.0598   110.6    63.2    21.2
...
2016 09 04    01 08 37.5 -25 42 13   0.1766  1.1538   142.6    32.0    21.3
...
2016 09 10    00 19 19.5 -24 58 19   0.2338  1.2222   154.6    20.7    21.7
2016 09 11    00 13 20.4 -24 47 03   0.2442  1.2334   155.7    19.6    21.8
2016 09 12    00 07 50.1 -24 35 19   0.2549  1.2446   156.7    18.6    21.9
...
2016 09 18    23 42 41.2 -23 21 05   0.3226  1.3103   158.5    16.3    22.4
...
2016 09 26    23 22 56.9 -21 43 26   0.4222  1.3948   154.2    18.2    23.2
...
2016 10 11    23 07 49.2 -18 53 47   0.6341  1.5436   141.0    24.0    24.5

A. U. Tomatic                (C) Copyright 2016 MPC           M.P.E.C. 2016-R114




More information about the Iaude mailing list